Change the Weather History Date:

Wednesday, November 9, 2011

  Actual Average Record
Temperature  
Mean Temperature 51 °F -  
Max Temperature 69 °F 62 °F 84 °F (2005)
Min Temperature 33 °F 38 °F 23 °F (1992)
Degree Days  
Heating Degree Days 14    
Growing Degree Days 1 (Base 50)    
Moisture  
Dew Point 43 °F    
Average Humidity 78    
Maximum Humidity 100    
Minimum Humidity 43    
Precipitation  
Precipitation 0.00 in - - ()
Sea Level Pressure  
Sea Level Pressure 30.13 in    
Wind  
Wind Speed 0 mph (SSE)    
Max Wind Speed 6 mph    
Max Gust Speed -    
Visibility 8 miles    
Events      
Averages and records for this station are not official NWS values.
T = Trace of Precipitation, MM = Missing Value Source: NWS Daily Summary

Daily Weather History Graph

Daily Weather History Graph

Search for Another Location

Airport or City:

Trip Planner

Search our weather history database for the weather conditions in past years. The results will help you decide how hot, cold, wet, or windy it might be!

Date:

Astronomy

Nov. 09, 2011 Rise Set
Actual Time 6:46 AM EST 5:12 PM EST
Civil Twilight 6:19 AM EST 5:39 PM EST
Nautical Twilight 5:48 AM EST 6:10 PM EST
Astronomical Twilight 5:18 AM EST 6:40 PM EST
Moon 4:23 PM EST (11/9) 5:40 AM EST (11/9)
Length of Visible Light 11h 19m
Length of Day
10h 25m
Waxing Gibbous, 99% of the Moon is Illuminated
Nov 9
Waxing Gibbous
Nov 10
Full
Nov 18
Last Quarter
Nov 25
New
Dec 2
First Quarter

Hourly Weather History & Observations

Time (EST) Temp. Dew Point Humidity Pressure Visibility Wind Dir Wind Speed Gust Speed Precip Events Conditions
12:15 AM 39.2 °F 39.2 °F 100% 30.21 in 7.0 mi Calm Calm - N/A   Unknown
12:35 AM 39.2 °F 37.4 °F 93% 30.21 in 7.0 mi Calm Calm - N/A   Unknown
12:55 AM 39.2 °F 37.4 °F 93% 30.20 in 5.0 mi Calm Calm - N/A   Unknown
1:15 AM 37.4 °F 37.4 °F 100% 30.20 in 5.0 mi Calm Calm - N/A   Unknown
1:35 AM 37.4 °F 37.4 °F 100% 30.20 in 4.0 mi Calm Calm - N/A   Unknown
1:55 AM 37.4 °F 37.4 °F 100% 30.19 in 7.0 mi Calm Calm - N/A   Unknown
2:15 AM 37.4 °F 37.4 °F 100% 30.19 in 7.0 mi Calm Calm - N/A   Unknown
2:35 AM 37.4 °F 37.4 °F 100% 30.19 in 4.0 mi Calm Calm - N/A   Unknown
2:55 AM 35.6 °F 35.6 °F 100% 30.19 in 5.0 mi Calm Calm - N/A   Unknown
3:15 AM 35.6 °F 35.6 °F 100% 30.19 in 5.0 mi Calm Calm - N/A   Unknown
3:35 AM 35.6 °F 35.6 °F 100% 30.19 in 4.0 mi Calm Calm - N/A   Unknown
3:55 AM 35.6 °F 35.6 °F 100% 30.19 in 5.0 mi Calm Calm - N/A   Unknown
4:15 AM 35.6 °F 35.6 °F 100% 30.19 in 5.0 mi Calm Calm - N/A   Unknown
4:35 AM 35.6 °F 35.6 °F 100% 30.18 in 5.0 mi Calm Calm - N/A   Unknown
4:55 AM 35.6 °F 33.8 °F 93% 30.18 in 5.0 mi Calm Calm - N/A   Unknown
5:15 AM 35.6 °F 33.8 °F 93% 30.18 in 3.0 mi Calm Calm - N/A   Unknown
5:35 AM 33.8 °F 33.8 °F 100% 30.17 in 10.0 mi Calm Calm - N/A   Unknown
5:55 AM 33.8 °F 33.8 °F 100% 30.17 in 5.0 mi Calm Calm - N/A   Unknown
6:15 AM 33.8 °F 33.8 °F 100% 30.17 in 4.0 mi Calm Calm - N/A   Unknown
6:35 AM 33.8 °F 33.8 °F 100% 30.18 in 7.0 mi Calm Calm - N/A   Unknown
6:55 AM 33.8 °F 33.8 °F 100% 30.18 in 5.0 mi Calm Calm - N/A   Unknown
7:15 AM 33.8 °F 33.8 °F 100% 30.19 in 7.0 mi Calm Calm - N/A   Unknown
7:35 AM 33.8 °F 33.8 °F 100% 30.19 in 7.0 mi Calm Calm - N/A   Unknown
7:55 AM 35.6 °F 35.6 °F 100% 30.20 in 10.0 mi Calm Calm - N/A   Unknown
9:15 AM 51.8 °F 51.8 °F 100% 30.20 in - Calm Calm - N/A   Unknown
9:35 AM 55.4 °F 51.8 °F 88% 30.19 in 10.0 mi Calm Calm - N/A   Unknown
9:55 AM 57.2 °F 51.8 °F 82% 30.18 in 10.0 mi Calm Calm - N/A   Unknown
10:15 AM 60.8 °F 51.8 °F 72% 30.18 in 10.0 mi Calm Calm - N/A   Unknown
10:35 AM 60.8 °F 48.2 °F 63% 30.18 in 10.0 mi Calm Calm - N/A   Unknown
10:55 AM 62.6 °F 46.4 °F 55% 30.17 in 10.0 mi Calm Calm - N/A   Unknown
11:15 AM 62.6 °F 44.6 °F 52% 30.16 in 10.0 mi Calm Calm - N/A   Unknown
11:35 AM 64.4 °F 46.4 °F 52% 30.15 in 10.0 mi Calm Calm - N/A   Unknown
11:55 AM 64.4 °F 46.4 °F 52% 30.14 in 10.0 mi South 3.5 mph - N/A   Unknown
12:15 PM 66.2 °F 46.4 °F 49% 30.13 in 10.0 mi Calm Calm - N/A   Unknown
12:35 PM 66.2 °F 48.2 °F 52% 30.11 in 10.0 mi Calm Calm - N/A   Unknown
12:55 PM 66.2 °F 46.4 °F 49% 30.10 in 10.0 mi Calm Calm - N/A   Unknown
1:15 PM 68.0 °F 46.4 °F 46% 30.09 in 10.0 mi Calm Calm - N/A   Unknown
1:35 PM 68.0 °F 44.6 °F 43% 30.08 in 10.0 mi SE 4.6 mph - N/A   Unknown
1:55 PM 69.8 °F 46.4 °F 43% 30.07 in 3.0 mi Calm Calm - N/A   Unknown
2:15 PM 69.8 °F 48.2 °F 46% 30.06 in 10.0 mi SSE 4.6 mph - N/A   Unknown
2:35 PM 69.8 °F 48.2 °F 46% 30.05 in 10.0 mi South 4.6 mph - N/A   Unknown
2:55 PM 69.8 °F 48.2 °F 46% 30.05 in 10.0 mi South 5.8 mph - N/A   Unknown
3:15 PM 69.8 °F 48.2 °F 46% 30.04 in 10.0 mi Calm Calm - N/A   Unknown
3:35 PM 69.8 °F 48.2 °F 46% 30.04 in 10.0 mi SE 4.6 mph - N/A   Unknown
3:55 PM 68.0 °F 48.2 °F 49% 30.04 in 10.0 mi ESE 5.8 mph - N/A   Unknown
4:15 PM 68.0 °F 48.2 °F 49% 30.04 in 10.0 mi SE 4.6 mph - N/A   Unknown
4:35 PM 66.2 °F 48.2 °F 52% 30.04 in 10.0 mi SE 3.5 mph - N/A   Unknown
4:55 PM 64.4 °F 48.2 °F 56% 30.04 in 10.0 mi Calm Calm - N/A   Unknown
5:15 PM 62.6 °F 50.0 °F 63% 30.03 in 10.0 mi Calm Calm - N/A   Unknown
5:35 PM 57.2 °F 48.2 °F 72% 30.03 in 10.0 mi Calm Calm - N/A   Unknown
5:55 PM 57.2 °F 51.8 °F 82% 30.04 in 10.0 mi Calm Calm - N/A   Unknown
6:15 PM 55.4 °F 50.0 °F 82% 30.04 in 10.0 mi Calm Calm - N/A   Unknown
6:35 PM 53.6 °F 50.0 °F 88% 30.03 in 10.0 mi Calm Calm - N/A   Unknown
6:55 PM 51.8 °F 50.0 °F 94% 30.02 in 10.0 mi Calm Calm - N/A   Unknown
7:15 PM 51.8 °F 50.0 °F 94% 30.02 in 10.0 mi Calm Calm - N/A   Unknown
7:35 PM 51.8 °F 48.2 °F 88% 30.02 in 10.0 mi Calm Calm - N/A   Unknown
7:55 PM 50.0 °F 48.2 °F 94% 30.01 in 7.0 mi Calm Calm - N/A   Unknown
8:15 PM 48.2 °F 48.2 °F 100% 30.02 in 10.0 mi Calm Calm - N/A   Unknown
8:35 PM 48.2 °F 46.4 °F 93% 30.01 in 10.0 mi Calm Calm - N/A   Unknown
8:55 PM 48.2 °F 48.2 °F 100% 30.01 in 5.0 mi Calm Calm - N/A   Unknown
9:15 PM 48.2 °F 46.4 °F 93% 30.02 in 10.0 mi Calm Calm - N/A   Unknown
9:35 PM 48.2 °F 46.4 °F 93% 30.02 in 10.0 mi Calm Calm - N/A   Unknown
9:55 PM 48.2 °F 46.4 °F 93% 30.02 in 7.0 mi Calm Calm - N/A   Unknown
10:15 PM 48.2 °F 48.2 °F 100% 30.01 in 7.0 mi Calm Calm - N/A   Unknown
10:35 PM 48.2 °F 48.2 °F 100% 30.01 in 10.0 mi Calm Calm - N/A   Unknown
10:55 PM 48.2 °F 46.4 °F 93% 30.00 in 10.0 mi Calm Calm - N/A   Unknown
11:15 PM 48.2 °F 46.4 °F 93% 29.99 in 7.0 mi Calm Calm - N/A   Unknown
11:35 PM 48.2 °F 46.4 °F 93% 29.99 in 7.0 mi Calm Calm - N/A   Unknown
11:55 PM 46.4 °F 46.4 °F 100% 29.99 in 7.0 mi Calm Calm - N/A   Unknown